Wind_Speed
37 37 36 34 30 30 32 34 35 34 34 36 40 38 37 38 39 38 39 38 37 35 36 35 32 32 31
37 39 39 32 31 29 32 32 33 33 33 34 36 38 34 33 34 34 36 37 39 38 37 36 34 33 34
37 34 34 31 29 29 29 30 30 28 23 26 31 36 36 31 30 32 31 31 35 36 37 34 29 30 30
38 38 34 34 32 30 30 27 27 26 24 27 28 32 34 35 35 37 35 33 32 36 36 35 34 34 34
31 36 32 33 30 29 25 26 25 23 26 25 23 24 27 32 33 36 33 31 32 32 33 35 36 37 37
33 26 32 33 28 26 23 23 23 21 17 20 19 16 18 26 35 23 25 26 25 27 30 35 37 39 39
29 32 33 35 27 26 24 23 22 22 16 17 14 15 16 19 23 23 20 23 25 26 28 31 33 35 36
24 25 23 26 30 27 24 23 25 24 17 18 18 18 23 23 19 22 22 22 24 24 25 28 29 33 36
22 24 25 25 24 24 27 27 27 25 21 18 19 17 15 14 12 18 21 20 20 17 20 18 18 19 19
16 18 21 24 27 29 30 31 29 21 25 21 21 19 14 14 14 13 14 15 12 13 11 8 6 4 5
7 7 8 9 11 15 17 20 23 24 19 19 22 20 20 10 13 11 12 11 9 11 12 13 11 11 14
7 5 5 4 5 4 1 3 9 16 18 18 19 18 21 14 12 15 14 13 11 11 11 11 9 8 8
13 11 10 9 5 2 3 4 2 4 7 11 11 11 14 14 16 19 17 15 14 13 12 12 10 7 7
19 18 15 11 9 6 4 2 2 3 4 5 7 10 12 9 10 17 16 10 14 13 13 12 12 12 13
16 12 9 8 7 6 6 5 5 6 6 8 9 11 11 9 12 14 14 13 11 10 10 12 11 11 11
11 9 8 7 6 6 6 6 6 7 7 8 9 10 10 8 9 11 12 11 10 8 9 8 9 10 10
11 10 8 7 6 6 6 5 6 6 7 7 8 9 9 7 7 9 7 6 6 7 9 9 8 11 11
Wind_Direction
282 284 277 277 279 279 277 276 275 273 267 262 256 257 260 260 261 257 254 256 257 259 255 256 254 253 251
279 284 271 273 276 275 276 277 278 275 271 266 259 256 259 260 257 257 255 254 255 255 255 249 245 254 258
281 272 278 278 276 279 277 277 279 291 272 272 270 259 256 260 253 253 259 256 253 253 253 250 244 247 253
267 271 277 276 275 273 276 274 282 280 281 272 276 264 257 252 257 256 256 254 253 252 249 247 247 249 253
263 258 267 266 268 276 277 279 280 281 279 289 284 272 264 254 261 254 253 249 250 249 249 247 250 251 256
254 281 256 263 272 275 268 273 282 288 295 287 270 278 280 266 260 238 243 249 251 254 254 254 256 259 262
267 272 268 265 272 266 260 264 274 280 284 281 273 268 270 260 258 245 248 255 253 250 256 260 258 257 259
272 271 269 268 263 262 265 267 271 272 266 271 280 277 264 258 235 249 245 262 265 267 266 265 264 261 260
274 273 269 260 254 255 259 268 263 261 264 261 270 265 235 235 260 261 258 257 264 269 279 275 266 260 256
287 278 275 272 262 261 259 259 253 257 260 252 255 253 236 232 238 238 250 255 251 260 243 206 193 232 197
316 318 304 290 269 257 255 251 246 247 245 251 246 242 231 209 214 220 217 216 211 201 194 189 184 181 178
286 303 317 350 30 39 20 243 240 244 246 236 234 235 228 206 185 195 196 198 195 194 187 188 188 189 212
274 281 288 287 295 332 60 72 111 194 210 216 221 225 214 222 206 188 186 189 195 198 200 201 208 216 251
262 266 271 270 261 247 238 210 203 159 157 179 189 186 208 201 197 190 190 195 208 216 224 228 233 243 246
255 253 250 249 238 234 221 216 225 199 180 168 169 183 180 174 177 189 201 214 225 237 246 254 258 255 250
237 230 220 215 212 211 220 214 199 183 173 166 167 174 173 166 186 196 208 218 226 235 242 244 253 255 256
228 228 220 208 206 196 191 188 182 183 186 190 190 189 192 182 192 204 212 229 238 249 259 261 256 259 264
Height
1417 1416 1416 1416 1416 1416 1416 1416 1415 1415 1415 1415 1415 1417 1418 1420 1422 1425 1427 1430 1433 1437 1439 1442 1444 1447 1448
1408 1408 1405 1409 1408 1407 1407 1406 1404 1404 1404 1404 1404 1406 1408 1409 1412 1414 1417 1419 1422 1425 1428 1432 1434 1436 1440
1400 1401 1400 1400 1400 1399 1398 1398 1397 1397 1395 1396 1396 1396 1398 1400 1402 1404 1407 1409 1412 1415 1418 1419 1413 1426 1429
1392 1392 1392 1393 1392 1391 1390 1391 1390 1390 1388 1387 1387 1387 1387 1390 1393 1395 1397 1400 1403 1406 1408 1411 1413 1416 1419
1384 1383 1384 1383 1383 1385 1384 1385 1384 1382 1380 1380 1379 1378 1379 1381 1384 1386 1388 1391 1395 1397 1399 1402 1405 1408 1411
1378 1376 1375 1375 1377 1378 1377 1378 1377 1375 1374 1374 1373 1374 1375 1373 1377 1376 1381 1384 1386 1389 1391 1393 1396 1398 1400
1370 1370 1368 1370 1371 1371 1370 1372 1371 1372 1370 1368 1369 1369 1370 1370 1370 1371 1375 1377 1379 1381 1383 1385 1386 1388 1390
1362 1362 1362 1362 1363 1363 1364 1365 1365 1366 1365 1365 1365 1365 1365 1366 1365 1368 1370 1371 1372 1375 1374 1377 1379 1380 1381
1356 1356 1356 1356 1356 1356 1357 1358 1357 1358 1359 1359 1360 1360 1360 1361 1361 1364 1365 1366 1368 1369 1370 1370 1372 1372 1371
1351 1349 1349 1348 1348 1349 1349 1349 1350 1350 1351 1354 1354 1356 1357 1357 1359 1360 1361 1363 1365 1366 1367 1369 1369 1368 1368
1349 1347 1346 1344 1341 1340 1340 1341 1342 1343 1346 1348 1349 1350 1352 1353 1354 1357 1360 1361 1363 1364 1365 1367 1368 1368 1370
1348 1346 1345 1344 1342 1339 1337 1335 1336 1338 1340 1342 1343 1345 1346 1350 1352 1355 1358 1360 1362 1363 1365 1367 1368 1370 1372
1346 1345 1344 1344 1342 1341 1339 1338 1337 1337 1338 1340 1342 1343 1345 1348 1350 1353 1356 1358 1360 1362 1364 1366 1367 1368 1370
1344 1343 1342 1342 1341 1340 1340 1340 1340 1339 1339 1339 1341 1343 1346 1348 1350 1353 1356 1358 1359 1361 1363 1364 1366 1367 1369
1339 1338 1338 1339 1339 1340 1340 1340 1340 1340 1340 1341 1342 1344 1346 1348 1351 1354 1355 1357 1358 1360 1361 1362 1362 1365 1366
1335 1335 1335 1336 1338 1338 1339 1339 1340 1340 1340 1341 1343 1344 1346 1349 1351 1352 1354 1355 1356 1357 1359 1360 1361 1362 1363
1333 1334 1333 1334 1336 1337 1337 1339 1339 1340 1341 1342 1344 1345 1346 1347 1350 1352 1353 1354 1355 1356 1358 1359 1360 1360 1361